Training

Spin Video     https://www.youtube.com/watch?v=Vj8vdWBMePM&list=UULpWoZCi_X3hPwW6J_RsFEg     … [Read More...]

Weather

METAR FOR KCHA (Issued: Sun, April 26th 2015 2:53 PM UTC):
KCHA 261453Z 36008KT 10SM BKN024 BKN036 19/14 A2972 RMK AO2 SLP057 T01940144 53015

Accomplishments

Congratulations

Andrew Tucker soloed on  2-25-15 at 1A0 , we done. … [Read More...]

Hixson’s first Private Pilot of the year

Congratulation to Mr. Alan Kelley for  passing his Private Pilot Check Ride on 1-17-15. … [Read More...]

Dallas Bay Skypark - 1A0